[[{"header":{"parameterUnit":"m.s-1","parameterCategory":1,"la1":30.2991,"la2":30.254,"lo1":-89.0895,"lo2":-89.0444,"dy":0.0017,"dx":0.0017,"nx":28,"ny":28,"refTime":"2024-05-17T21:00:00:Z","depth":0,"parameterNumber":2,"parameterNumberName":"U-component_of_WINDS"},"data":[0,0,0,0,0,0,0,0,0,0,0,0,0,0,0,0,0,0,0,0,0,0,0,0,0,0,0,0,0,0,0,0,0,0,0,0,0,0,0,0,0,0,0,0,0,0,0,0,0,0,0,0,0,0,0,0,0,0,-0.9266,-0.9266,0,-0.9211,-0.921,-0.921,-0.9208,-0.9209,-0.9209,-0.921,-0.9151,-0.9149,-0.9147,0,0,0,0,0,0,0,0,0,0,0,0,0,-0.9368,-0.9366,-0.9266,-0.9266,-0.9265,-0.9211,-0.921,-0.921,-0.9208,-0.9209,-0.9209,-0.921,-0.9152,-0.9149,-0.9147,0,0,0,0,0,0,0,0,0,0,0,0,0,-0.9319,-0.9365,-0.9266,-0.9258,-0.9256,-0.9211,-0.921,-0.9209,-0.9208,-0.9209,-0.921,-0.9211,-0.9153,-0.915,-0.9146,-0.9106,0,0,-0.9136,-0.9135,0,0,0,0,0,0,0,0,-0.9322,-0.9315,-0.926,-0.9258,-0.9257,-0.9217,-0.9225,-0.9175,-0.9207,-0.9226,-0.921,-0.9211,-0.9172,-0.9167,-0.9155,-0.9103,-0.91,-0.9136,-0.9134,-0.9133,-0.9132,0,0,0,0,0,0,0,-0.9325,-0.9318,-0.9244,-0.9259,-0.9257,-0.9256,-0.925,-0.9215,-0.9194,-0.9225,-0.9224,-0.9218,-0.9172,-0.9158,-0.9153,-0.91,-0.9136,-0.9133,-0.9131,-0.913,-0.9009,-0.9008,0,0,0,0,0,0,-0.9331,-0.9321,-0.9246,-0.9243,-0.9292,-0.9253,-0.9246,-0.9229,-0.9194,-0.919,-0.9217,-0.9218,-0.9163,-0.9157,-0.9151,-0.91,-0.9133,-0.9129,-0.9128,-0.9011,-0.9009,-0.9008,0,0,0,0,0,0,-0.9333,-0.9324,-0.9248,-0.9282,-0.9272,-0.925,-0.923,-0.9227,-0.9214,-0.9189,-0.9185,-0.9207,-0.9164,-0.9156,-0.9117,-0.9098,-0.9128,-0.9125,-0.9012,-0.901,-0.9008,-0.8997,0,0,0,0,0,0,-0.9336,-0.9325,-0.931,-0.9281,-0.927,-0.9216,-0.9229,-0.9226,-0.9208,-0.9209,-0.9178,-0.9174,-0.9164,-0.9122,-0.9113,-0.9094,-0.9122,-0.9014,-0.9011,-0.9009,-0.8999,-0.8995,-0.8992,0,0,0,0,0,-0.9339,-0.9309,-0.9309,-0.93,-0.9251,-0.9215,-0.9208,-0.9197,-0.9207,-0.9191,-0.9175,-0.9175,-0.9102,-0.9118,-0.9108,-0.9087,-0.9015,-0.9012,-0.9009,-0.9001,-0.8996,-0.8992,0,0,0,0,0,0,-0.9336,-0.9305,-0.9305,-0.9265,-0.9242,-0.9214,-0.9194,-0.9193,-0.9167,-0.9168,-0.9155,-0.9148,-0.9109,-0.9095,-0.9113,-0.9045,-0.9059,-0.9054,-0.9056,-0.9051,-0.9048,-0.9051,-0.912,0,0,0,0,0,-0.933,-0.9304,-0.9278,-0.9245,-0.9234,-0.9216,-0.92,-0.9193,-0.9169,-0.9159,-0.9141,-0.9116,-0.9088,-0.9069,-0.9041,-0.8998,-0.899,-0.8979,-0.8975,-0.8972,-0.8967,-0.8941,-0.8935,-0.8999,-0.8999,-0.8999,0,0,-0.9319,-0.9299,-0.9283,-0.9244,-0.9226,-0.9197,-0.9208,-0.9178,-0.9156,-0.9155,-0.9116,-0.9101,-0.9074,-0.9031,-0.9012,-0.9018,-0.8948,-0.8969,-0.8966,-0.8963,-0.8938,-0.8932,-0.8926,-0.8997,-0.8997,-0.8997,0,0,-0.9282,-0.9266,-0.9235,-0.9217,-0.9189,-0.9177,-0.917,-0.9142,-0.9132,-0.9093,-0.9091,-0.9065,-0.9016,-0.8995,-0.8979,-0.8934,-0.8932,-0.8925,-0.8906,-0.888,-0.8875,-0.887,-0.8852,-0.8846,-0.8921,-0.8921,-0.8921,0,-0.9271,-0.9229,-0.9219,-0.9189,-0.9171,-0.9169,-0.9137,-0.9119,-0.9084,-0.9071,-0.9079,-0.9016,-0.8998,-0.895,-0.8939,-0.8926,-0.8916,-0.8928,-0.8877,-0.8872,-0.8868,-0.885,-0.8844,-0.892,-0.892,-0.8921,-0.8921,0,-0.9216,-0.9186,-0.9165,-0.9131,-0.9111,-0.908,-0.9064,-0.9045,-0.904,-0.9027,-0.8986,-0.8964,-0.8931,-0.8919,-0.8914,-0.887,-0.8874,-0.888,-0.8893,-0.8861,-0.8844,-0.8837,-0.8919,-0.8919,-0.892,-0.892,0,0,-0.9175,-0.9135,-0.9127,-0.9111,-0.908,-0.9057,-0.9025,-0.8993,-0.8976,-0.8951,-0.8923,-0.8882,-0.8886,-0.8867,-0.886,-0.8838,-0.8801,-0.8845,-0.8844,-0.8836,-0.8748,-0.8742,-0.8735,-0.88,-0.8799,-0.8798,-0.8749,0,-0.9134,-0.9078,-0.9068,-0.9018,-0.899,-0.8987,-0.8959,-0.8936,-0.8923,-0.8896,-0.8882,-0.8851,-0.8861,-0.8849,-0.8827,-0.881,-0.8782,-0.8814,-0.8772,-0.8771,-0.8777,-0.8726,-0.8721,-0.8676,-0.8743,-0.8742,-0.8741,0,-0.9079,-0.9052,-0.9,-0.8971,-0.8959,-0.8934,-0.8903,-0.8878,-0.8852,-0.8844,-0.8822,-0.8817,-0.8782,-0.8799,-0.875,-0.8771,-0.8753,-0.8742,-0.874,-0.8734,-0.8752,-0.8717,-0.8662,-0.8654,-0.8731,-0.8732,-0.8732,0,-0.9052,-0.9004,-0.8965,-0.8952,-0.8918,-0.89,-0.8885,-0.886,-0.884,-0.8813,-0.88,-0.8769,-0.8752,-0.8727,-0.8713,-0.8727,-0.8664,-0.868,-0.8655,-0.8655,-0.864,-0.8641,-0.8579,-0.8633,-0.8633,-0.8633,-0.8633,0,-0.9006,-0.8973,-0.8953,-0.8929,-0.8892,-0.888,-0.8844,-0.8829,-0.8806,-0.8778,-0.8774,-0.8748,-0.8733,-0.8704,-0.8693,-0.8653,-0.8646,-0.8637,-0.8634,-0.8636,-0.8636,-0.8623,-0.8624,-0.8631,-0.8631,-0.8632,-0.8632,0,-0.8969,-0.8954,-0.8912,-0.8883,-0.8875,-0.8849,-0.8823,-0.8799,-0.8786,-0.8751,-0.8742,-0.8721,-0.8687,-0.8671,-0.8629,-0.8622,-0.8575,-0.8576,-0.8584,-0.8582,-0.8557,-0.8559,-0.8483,-0.8471,-0.8534,-0.8534,-0.8533,0,-0.894,-0.8915,-0.8883,-0.8864,-0.8848,-0.8819,-0.8799,-0.8786,-0.8765,-0.8732,-0.8712,-0.8678,-0.865,-0.8595,-0.8575,-0.8543,-0.8541,-0.8516,-0.8536,-0.8538,-0.8537,-0.8538,-0.8534,-0.8512,-0.8511,-0.8511,-0.851,0,-0.8889,-0.8882,-0.8854,-0.8823,-0.8799,-0.8774,-0.8749,-0.8734,-0.8717,-0.8693,-0.8658,-0.8637,-0.8593,-0.8559,-0.8524,-0.8508,-0.8505,-0.8505,-0.8497,-0.8497,-0.8502,-0.8497,-0.8572,-0.8506,-0.8506,-0.8507,-0.8507,-0.8507,-0.8853,-0.883,-0.8803,-0.8771,-0.8751,-0.8728,-0.8703,-0.8687,-0.8658,-0.8621,-0.8616,-0.8578,-0.855,-0.8504,-0.8486,-0.8456,-0.8461,-0.845,-0.8447,-0.8444,-0.8441,-0.8509,-0.845,-0.845,-0.845,-0.845,-0.845,0,-0.88,-0.8783,-0.8754,-0.8718,-0.8693,-0.8694,-0.8666,-0.8644,-0.8611,-0.8586,-0.8558,-0.8517,-0.8483,-0.8461,-0.8426,-0.8405,-0.8403,-0.8397,-0.8397,-0.8392,-0.8439,-0.8449,-0.8399,-0.8399,-0.8399,-0.8399,-0.8399,-0.8399,-0.8769,-0.8729,-0.8719,-0.8668,-0.8651,-0.8614,-0.8598,-0.8575,-0.8555,-0.8509,-0.8481,-0.8467,-0.8442,-0.8405,-0.8373,-0.8367,-0.8354,-0.8346,-0.834,-0.8384,-0.8389,-0.8394,-0.8403,-0.8344,-0.8344,-0.8295,-0.8295,-0.8295]},{"header":{"parameterUnit":"m.s-1","parameterCategory":1,"la1":30.2991,"la2":30.254,"lo1":-89.0895,"lo2":-89.0444,"dy":0.0017,"dx":0.0017,"nx":28,"ny":28,"refTime":"2024-05-17T21:00:00:Z","depth":0,"parameterNumber":3,"parameterNumberName":"V-component_of_WINDS"},"data":[0,0,0,0,0,0,0,0,0,0,0,0,0,0,0,0,0,0,0,0,0,0,0,0,0,0,0,0,0,0,0,0,0,0,0,0,0,0,0,0,0,0,0,0,0,0,0,0,0,0,0,0,0,0,0,0,0,0,2.3377,2.3378,0,2.3497,2.3498,2.35,2.3496,2.3495,2.3493,2.3491,2.3614,2.3619,2.3624,0,0,0,0,0,0,0,0,0,0,0,0,0,2.3144,2.3149,2.3377,2.3378,2.338,2.3497,2.3498,2.35,2.3497,2.3495,2.3493,2.3491,2.3613,2.3618,2.3624,0,0,0,0,0,0,0,0,0,0,0,0,0,2.3253,2.315,2.3377,2.3392,2.3395,2.3496,2.3498,2.35,2.3497,2.3495,2.3492,2.349,2.3611,2.3618,2.3625,2.3719,0,0,2.3647,2.365,0,0,0,0,0,0,0,0,2.3247,2.3261,2.3388,2.3391,2.3394,2.3479,2.3461,2.3574,2.3498,2.3458,2.3491,2.3489,2.3571,2.3582,2.3609,2.3724,2.373,2.3648,2.3652,2.3655,2.3657,0,0,0,0,0,0,0,2.3239,2.3256,2.3424,2.339,2.3394,2.3393,2.3406,2.3483,2.3527,2.3461,2.3461,2.3476,2.3572,2.3603,2.3612,2.3732,2.3647,2.3654,2.3658,2.3661,2.393,2.3933,0,0,0,0,0,0,2.3228,2.325,2.342,2.3428,2.3313,2.3399,2.3414,2.3454,2.3526,2.3535,2.3478,2.3475,2.3591,2.3604,2.3617,2.3732,2.3655,2.3662,2.3666,2.3927,2.3931,2.3934,0,0,0,0,0,0,2.3223,2.3244,2.3416,2.3339,2.3361,2.3406,2.3452,2.3458,2.3488,2.3539,2.3546,2.3501,2.359,2.3607,2.3694,2.3737,2.3665,2.3671,2.3924,2.3928,2.3932,2.3964,0,0,0,0,0,0,2.3217,2.3242,2.3278,2.334,2.3365,2.3491,2.3455,2.3462,2.3501,2.3498,2.3562,2.357,2.3589,2.3683,2.3701,2.3745,2.3677,2.392,2.3926,2.3931,2.3959,2.3969,2.3977,0,0,0,0,0,2.3209,2.3282,2.328,2.3301,2.3411,2.3493,2.3508,2.3528,2.3504,2.3541,2.3573,2.3568,2.3728,2.3692,2.3712,2.3759,2.3918,2.3924,2.3931,2.3955,2.3967,2.3976,0,0,0,0,0,0,2.3225,2.3291,2.3289,2.3385,2.3433,2.3493,2.354,2.354,2.3596,2.3592,2.3615,2.3629,2.3717,2.3746,2.3704,2.3854,2.382,2.3831,2.3832,2.3843,2.3852,2.3844,2.3683,0,0,0,0,0,2.3239,2.33,2.3354,2.3434,2.3458,2.3495,2.3531,2.3543,2.3594,2.3615,2.3654,2.3704,2.3765,2.3806,2.3865,2.3963,2.3977,2.4005,2.4014,2.4021,2.403,2.4085,2.4098,2.3955,2.3955,2.3955,0,0,2.327,2.3314,2.3351,2.3438,2.3477,2.354,2.3512,2.358,2.3627,2.3625,2.371,2.374,2.3797,2.389,2.3933,2.3918,2.4073,2.4029,2.4034,2.404,2.4093,2.4106,2.4118,2.3959,2.3958,2.3958,0,0,2.3359,2.3398,2.3469,2.3508,2.3568,2.3592,2.3608,2.3668,2.3688,2.3773,2.3773,2.3829,2.3935,2.3976,2.4011,2.4114,2.4112,2.4133,2.4179,2.4232,2.4244,2.4254,2.4292,2.4306,2.4142,2.4142,2.4142,0,2.3391,2.3486,2.3505,2.3574,2.3612,2.3613,2.3685,2.3722,2.3798,2.3825,2.3806,2.3939,2.3977,2.408,2.4106,2.4133,2.4154,2.4127,2.4241,2.4251,2.4261,2.4298,2.4312,2.4144,2.4144,2.4144,2.4143,0,2.3522,2.3587,2.3637,2.3711,2.3755,2.3825,2.3855,2.3897,2.3904,2.393,2.4017,2.4063,2.4132,2.4157,2.4165,2.4261,2.425,2.4235,2.4202,2.4276,2.4312,2.4326,2.4147,2.4147,2.4146,2.4145,0,0,2.3626,2.3709,2.3727,2.3761,2.3826,2.3877,2.3947,2.4014,2.4051,2.4102,2.4162,2.4251,2.4238,2.4277,2.4289,2.4336,2.4417,2.4316,2.4318,2.4334,2.4527,2.4539,2.4556,2.4414,2.4417,2.4419,2.4523,0,2.3724,2.3848,2.3867,2.3976,2.4038,2.4039,2.4099,2.4146,2.4171,2.4227,2.4255,2.4318,2.4296,2.432,2.4365,2.4397,2.4456,2.439,2.4471,2.4474,2.4459,2.4574,2.4587,2.4683,2.4537,2.4539,2.4541,0,2.3855,2.391,2.4026,2.4083,2.4109,2.4164,2.4227,2.428,2.4333,2.4348,2.4392,2.4398,2.4471,2.4432,2.4533,2.4487,2.4521,2.4542,2.4546,2.4556,2.4513,2.4589,2.4713,2.4729,2.4562,2.4561,2.4559,0,2.3922,2.4025,2.4108,2.4136,2.4204,2.4243,2.4273,2.4323,2.4362,2.4417,2.4444,2.4506,2.4541,2.4589,2.4613,2.4583,2.4712,2.4676,2.4728,2.4727,2.4757,2.4755,2.4891,2.4775,2.4775,2.4775,2.4774,0,2.403,2.4101,2.4139,2.419,2.4269,2.429,2.4368,2.4397,2.4442,2.4499,2.4502,2.4555,2.4582,2.4639,2.4657,2.4738,2.4754,2.4768,2.4773,2.477,2.4768,2.4794,2.4789,2.4778,2.4778,2.4777,2.4776,0,2.4119,2.4147,2.4238,2.4294,2.431,2.4367,2.4415,2.4465,2.4489,2.4561,2.4579,2.4618,2.4685,2.4713,2.4795,2.4807,2.4901,2.4899,2.4884,2.4886,2.4937,2.4932,2.5096,2.5119,2.4986,2.4987,2.4988,0,2.4187,2.4242,2.4305,2.4343,2.4374,2.4436,2.4476,2.4498,2.454,2.4604,2.4646,2.4713,2.4769,2.4876,2.4912,2.4975,2.4976,2.5029,2.4986,2.4981,2.4979,2.4976,2.4983,2.5037,2.5039,2.504,2.5041,0,2.4306,2.4317,2.4375,2.4438,2.4486,2.4537,2.4586,2.4617,2.4646,2.4693,2.4762,2.4805,2.4889,2.4957,2.5022,2.5052,2.5052,2.5054,2.5069,2.5068,2.5057,2.5065,2.4908,2.505,2.5049,2.5049,2.5048,2.5048,2.4389,2.4438,2.4489,2.4554,2.4593,2.4639,2.4689,2.4719,2.4777,2.4848,2.4856,2.4931,2.4982,2.5069,2.5103,2.5161,2.5148,2.517,2.5176,2.5182,2.5186,2.5046,2.5173,2.5172,2.5172,2.5172,2.5172,0,2.451,2.4543,2.4601,2.467,2.4721,2.4715,2.4769,2.4812,2.4877,2.4925,2.4979,2.5059,2.5123,2.5164,2.5229,2.5268,2.527,2.5285,2.5283,2.5291,2.5194,2.5174,2.5283,2.5283,2.5283,2.5282,2.5282,2.5282,2.4579,2.4662,2.4678,2.4781,2.4813,2.4886,2.4918,2.496,2.4998,2.5087,2.5141,2.5166,2.5211,2.528,2.5339,2.5349,2.5374,2.539,2.54,2.5309,2.5297,2.5287,2.5269,2.5395,2.5395,2.5492,2.5493,2.5494]}]]